GFSCGP_sfc_wetblb_132.txt.gz
Wetbulb
47.44 43.31 40.51 42.51 44.67 45.92 45.51 44.59 43.77 46.63 49.06 47.72 47.66 48.59 50.26 52.72 53.01 52.94 53.51 54.09 54.35 55.50 59.00 62.09 66.86 70.86 71.39 71.33 73.69 70.84 74.00 74.35 75.03 73.95 73.09 73.12 72.72 73.46 73.76 74.40 74.86 74.80 74.49 74.94
43.94 40.78 44.20 45.30 45.21 44.94 45.21 44.18 44.50 47.15 48.44 47.64 47.72 47.64 50.53 51.99 52.38 53.27 53.75 54.41 55.13 56.30 59.28 60.96 62.25 65.07 68.51 71.88 74.18 72.66 70.75 70.82 71.63 73.00 72.14 71.71 72.43 72.42 72.43 73.47 72.92 72.21 73.39 74.68
43.36 44.66 46.74 45.39 45.65 44.65 45.05 43.88 44.51 44.51 47.52 48.70 47.58 46.26 48.50 50.96 52.23 53.03 54.34 54.89 55.86 56.68 58.93 60.62 61.14 63.53 61.31 65.55 70.28 73.36 74.02 74.21 73.59 73.43 68.34 65.10 70.52 72.37 71.65 71.96 71.84 72.30 73.21 72.87
45.76 48.35 46.24 45.90 44.99 46.26 42.86 47.20 46.18 45.28 44.58 41.52 47.32 40.38 46.58 49.09 49.89 51.22 53.12 54.03 55.96 57.06 59.28 60.73 61.20 62.31 63.71 63.52 67.01 70.94 74.99 74.16 74.58 74.77 72.96 71.85 69.30 69.11 70.63 70.83 71.12 71.03 72.13 72.30
43.38 45.33 45.54 44.48 45.21 47.60 44.81 48.09 46.82 46.80 45.24 44.86 44.80 42.16 45.88 48.49 47.82 50.05 52.17 53.94 57.03 58.51 58.38 58.85 59.41 61.32 62.45 64.14 64.18 67.63 70.04 73.03 74.70 74.35 74.69 72.29 71.68 71.64 72.22 70.51 72.55 73.29 73.56 74.03
46.37 49.81 48.16 46.67 47.68 48.84 48.72 46.60 46.51 46.37 45.00 39.62 43.65 43.31 43.80 46.52 48.13 49.89 53.00 55.47 57.13 58.37 59.29 60.30 60.10 60.83 60.84 61.26 61.89 66.38 69.61 71.13 72.48 73.40 73.42 73.90 73.13 73.40 72.11 70.88 72.08 71.58 71.42 69.94
45.07 45.82 48.57 49.50 46.20 49.16 46.93 45.13 38.98 37.49 38.04 37.39 44.65 42.58 44.90 49.03 50.24 52.28 53.57 55.27 57.71 59.25 59.93 60.75 60.83 60.81 60.03 61.01 63.11 63.83 68.33 69.21 70.93 71.57 72.52 73.26 73.60 73.68 73.78 72.44 71.01 70.25 68.19 67.66
39.53 38.31 45.92 48.88 47.09 44.32 45.69 45.29 39.82 33.76 36.08 39.28 44.08 39.55 45.75 50.88 54.16 54.62 55.15 56.35 57.75 59.09 60.89 61.63 62.04 61.83 61.56 60.83 62.11 66.01 67.32 70.39 72.02 72.82 72.31 73.12 74.02 72.76 72.52 72.34 69.84 68.51 67.15 67.13
40.91 40.26 47.84 48.49 49.30 48.65 45.30 41.92 47.42 42.22 43.07 39.28 42.58 45.31 48.45 52.12 52.68 53.27 54.22 55.65 56.89 58.80 60.14 61.15 62.58 62.37 62.23 63.23 63.49 66.52 68.67 70.59 71.74 71.81 72.10 72.72 72.35 71.48 69.98 69.16 69.23 67.43 68.97 66.87
46.31 39.00 47.21 49.07 50.57 49.96 47.65 49.25 42.00 43.26 35.36 34.52 40.13 41.59 42.93 48.29 49.87 51.99 53.10 54.35 55.95 57.71 58.98 60.15 61.67 63.21 63.96 65.65 66.83 67.31 67.28 67.90 68.74 69.20 69.17 68.70 67.94 67.65 68.01 68.33 68.04 68.23 68.42 67.69
48.55 45.49 43.82 47.73 45.97 44.86 45.62 44.88 46.13 46.27 43.51 37.43 36.55 40.68 50.33 49.99 51.54 51.71 53.20 54.39 55.11 56.09 56.88 58.26 59.71 61.63 63.19 64.65 64.87 64.90 64.54 64.19 64.88 65.55 66.07 66.59 66.53 67.16 67.93 67.88 67.86 68.18 68.58 68.16
49.63 45.41 40.62 42.92 48.39 49.42 48.87 47.24 47.13 41.36 39.93 43.17 42.27 41.94 52.35 52.64 53.55 53.93 53.33 54.46 55.60 56.37 57.05 57.63 57.87 58.87 59.76 60.90 61.43 62.66 63.60 63.77 64.35 64.93 65.68 66.19 66.50 66.71 67.06 66.73 66.95 67.16 66.75 66.87
49.57 44.87 39.05 39.58 45.71 48.50 45.92 47.49 48.14 47.62 46.30 41.45 38.50 42.17 52.35 53.11 53.00 54.13 53.91 54.93 55.51 56.83 57.48 57.94 58.50 58.42 58.78 59.68 59.99 60.28 60.24 59.95 61.38 61.91 62.26 63.55 63.58 64.22 65.05 65.29 65.21 65.05 64.96 64.60
48.77 46.28 42.60 35.49 39.31 46.25 43.86 45.16 46.99 46.26 42.13 42.31 42.49 44.65 47.92 49.59 50.30 52.37 53.39 54.79 55.97 55.70 55.79 56.80 57.55 58.83 58.02 58.33 58.50 58.77 58.56 58.45 58.75 59.15 59.88 60.34 60.83 60.85 61.06 61.52 61.78 61.86 61.93 61.68
48.46 42.22 43.94 44.01 43.14 43.40 43.02 43.37 44.17 43.17 44.75 40.92 42.85 42.91 45.82 47.78 48.42 49.41 50.81 51.74 52.24 53.17 54.32 55.44 55.70 57.09 56.40 56.11 55.52 55.88 55.87 55.87 57.05 56.89 57.12 57.45 58.06 58.34 58.29 58.63 58.93 59.43 59.52 59.58
46.43 41.94 42.57 41.32 41.89 41.71 40.50 42.87 43.24 43.35 43.13 42.73 42.87 42.06 47.59 48.80 50.65 50.54 51.15 51.17 51.21 52.06 52.84 53.56 54.40 54.32 53.93 53.72 54.36 53.64 54.24 53.53 54.30 54.40 54.53 55.22 55.54 55.60 56.13 56.48 56.86 57.12 57.03 57.21
42.33 41.87 38.80 34.78 38.32 38.27 35.42 39.99 41.16 42.18 43.59 42.41 39.28 44.53 48.79 47.62 47.85 48.04 49.17 50.41 50.98 51.33 51.03 51.27 51.78 52.42 52.63 52.88 53.06 52.00 52.61 53.24 52.94 52.75 53.16 53.30 53.66 53.42 53.95 54.27 54.34 54.16 54.61 55.25
40.67 40.31 40.06 36.12 36.95 29.50 40.14 44.91 44.30 43.11 44.06 45.83 45.86 46.26 47.20 47.07 48.27 48.80 49.96 49.42 49.17 49.80 50.05 50.64 51.24 51.76 52.14 52.48 52.13 52.01 51.87 51.65 51.38 51.45 51.64 52.19 52.01 51.72 52.17 52.15 52.09 52.51 52.62 52.58
44.03 41.43 37.20 34.51 34.70 38.34 39.31 43.17 42.97 41.85 42.00 47.12 46.10 46.07 46.22 47.90 47.65 45.91 48.41 47.92 48.79 48.86 49.41 50.41 50.75 50.71 51.12 51.02 51.15 50.50 50.58 50.78 50.47 50.14 50.20 50.27 50.13 49.61 49.82 49.78 50.54 51.13 50.94 50.73
41.56 43.26 38.76 35.73 28.50 30.24 40.70 44.24 47.51 47.29 39.32 47.28 46.86 45.84 46.07 46.45 40.68 43.38 48.31 47.12 48.38 49.18 50.11 49.11 49.45 49.80 50.61 50.87 50.56 49.22 49.01 49.11 48.67 48.97 48.92 49.25 49.32 49.18 49.02 49.80 49.68 49.86 49.72 49.33
35.72 37.01 34.90 33.97 31.64 37.97 44.16 46.21 47.11 35.98 39.74 47.07 47.23 46.42 45.92 44.94 45.86 46.45 47.92 48.80 49.64 49.34 48.81 49.50 49.68 49.19 49.66 49.95 49.25 47.49 47.63 47.22 48.43 48.38 48.29 48.24 48.61 48.26 48.56 48.55 48.67 48.30 47.61 46.91
36.32 35.65 35.25 36.33 33.11 30.45 46.41 45.48 40.24 45.47 48.77 48.12 47.87 46.99 46.74 46.05 44.92 45.47 47.15 48.69 48.19 48.19 48.51 48.81 48.11 48.05 48.79 48.36 47.38 46.27 45.92 47.54 47.61 47.15 46.55 46.63 47.46 47.37 47.49 47.04 46.07 42.58 41.18 38.98
36.30 41.58 37.72 39.42 40.24 45.92 48.53 47.23 49.35 49.25 46.76 47.61 47.69 47.77 47.65 46.89 47.05 47.21 46.81 46.96 47.08 46.97 46.84 47.13 46.42 46.05 46.66 47.02 46.58 44.78 45.59 46.23 45.49 45.34 45.56 45.66 45.39 45.69 44.47 41.65 38.89 37.88 39.48 38.38
41.81 45.02 41.48 40.27 44.36 45.30 46.50 48.67 49.15 49.36 47.77 47.89 48.01 47.33 46.93 45.31 45.41 45.02 45.71 45.66 45.49 45.59 44.96 45.31 44.69 44.46 44.63 45.59 45.31 45.09 44.95 44.83 43.83 42.72 42.39 43.06 38.24 37.77 39.31 40.47 39.98 38.30 37.27 36.78
42.01 43.85 40.85 41.34 43.99 45.24 45.61 46.26 46.53 46.63 46.51 45.66 45.89 45.56 44.77 44.43 43.89 43.95 43.80 43.95 44.26 44.38 44.23 44.21 43.13 43.07 43.12 43.71 43.59 43.55 42.37 41.18 39.51 38.90 36.19 35.76 36.60 36.66 37.28 37.32 37.37 37.59 38.86 39.16
43.86 41.64 38.02 37.08 43.93 44.57 43.90 46.49 45.58 44.59 44.13 44.46 44.01 43.58 43.68 43.20 42.66 43.43 43.04 43.14 41.53 39.88 40.13 40.63 41.58 41.63 41.76 41.27 40.43 39.61 38.36 36.56 34.16 33.96 34.70 34.80 35.56 35.55 36.16 36.68 37.51 38.39 37.73 37.62

GFSCGP_sfc_wetblb_135.txt.gz
Wetbulb
50.10 45.84 43.46 45.60 46.67 46.25 46.46 46.18 45.75 47.95 50.44 48.86 49.03 49.21 51.27 53.46 53.75 53.75 54.33 54.78 55.15 55.19 56.95 59.13 62.36 66.34 71.99 75.83 75.88 75.88 74.91 76.02 72.16 73.86 74.27 73.04 72.73 69.71 70.55 71.14 73.18 73.50 73.78 73.13
46.72 43.28 47.40 48.08 47.18 45.73 45.79 45.80 45.68 47.92 49.91 49.64 49.21 48.85 51.70 52.86 53.55 54.23 54.43 55.08 55.40 56.08 56.39 58.94 65.26 70.42 72.75 75.29 73.82 75.06 75.21 75.69 71.59 72.59 73.16 70.47 69.24 72.43 71.37 70.17 70.82 69.41 70.24 69.87
45.14 46.21 47.93 46.58 45.34 44.44 45.18 44.97 45.53 45.27 48.64 49.59 48.73 47.03 49.43 52.13 53.28 53.91 54.34 55.48 55.86 56.31 56.16 59.73 63.60 66.24 70.94 72.10 71.16 73.85 74.48 73.53 71.48 71.25 71.90 72.85 71.65 70.96 70.81 70.73 71.41 69.40 69.64 67.94
46.71 49.26 46.76 44.83 44.08 45.91 43.77 47.95 46.97 46.50 45.21 42.31 49.32 41.25 49.01 51.02 50.85 52.80 53.69 53.83 56.22 57.37 57.50 59.74 62.23 64.49 67.39 67.33 67.65 71.57 75.09 71.03 70.41 68.76 68.38 69.52 67.40 66.17 65.31 66.11 72.20 71.18 70.42 71.42
45.18 46.17 46.12 45.01 45.32 48.20 45.94 49.18 47.76 47.29 45.68 45.32 45.34 43.48 46.92 50.98 49.09 51.26 53.47 54.29 56.78 57.76 59.34 59.72 60.73 62.32 63.97 65.47 65.57 71.02 74.39 73.49 70.84 71.80 70.56 70.96 70.12 68.48 67.91 71.35 73.23 73.13 73.84 73.81
48.30 51.03 49.42 47.54 49.06 48.91 49.60 48.04 47.77 47.93 46.40 40.60 44.48 44.12 44.78 47.36 49.80 51.45 53.69 55.24 57.09 57.88 58.77 60.35 61.57 62.31 62.76 63.41 64.70 68.09 69.73 71.68 75.00 73.34 73.17 73.39 72.63 71.57 70.72 73.05 71.56 71.00 71.81 71.92
45.96 46.63 49.03 49.55 46.65 49.13 48.47 46.06 39.88 38.53 39.13 38.58 46.07 43.78 45.83 50.17 51.56 52.28 54.02 54.58 56.85 58.23 59.72 60.83 62.02 62.67 63.19 62.39 63.45 64.30 66.87 68.78 71.47 73.94 74.36 74.01 75.14 74.16 74.75 74.62 72.15 70.20 72.79 70.87
40.03 38.34 46.81 49.30 47.73 44.86 46.64 46.53 41.22 35.23 36.85 39.74 45.45 41.48 46.13 51.41 54.19 54.57 54.41 55.68 57.28 58.47 60.25 60.86 62.57 63.19 63.26 63.08 63.49 65.16 65.65 67.79 70.74 71.45 73.13 73.90 74.02 74.01 74.14 75.40 75.53 72.83 71.60 71.80
41.49 40.88 48.55 49.00 49.81 49.14 46.02 43.78 48.66 43.26 44.30 40.69 42.45 46.02 50.64 52.59 52.67 53.06 53.72 55.67 56.83 58.30 59.66 60.73 62.93 64.17 64.82 65.51 65.40 67.00 67.84 69.05 71.49 71.77 72.25 72.48 73.55 73.10 73.66 75.32 75.08 72.97 73.62 69.57
45.74 41.10 47.86 48.55 49.67 49.63 47.74 48.81 42.52 44.14 36.37 34.78 40.31 42.45 42.68 48.40 50.51 52.94 53.90 55.01 56.53 57.78 58.77 60.85 62.67 64.46 66.08 67.25 68.05 68.92 68.95 69.92 71.37 71.94 71.71 71.16 70.09 71.88 73.56 72.74 71.38 71.33 70.13 68.80
49.62 46.48 44.66 47.52 46.20 44.36 46.21 44.72 46.39 45.87 43.43 37.44 36.92 39.06 50.37 50.10 50.85 52.97 54.27 55.75 56.29 57.09 57.39 59.01 60.99 62.96 64.26 65.33 65.57 66.15 66.84 67.50 68.11 69.24 70.37 69.78 69.19 69.15 68.89 68.42 68.06 68.61 69.06 67.96
49.98 47.26 40.88 44.47 49.62 51.00 49.19 46.78 47.29 42.51 40.55 40.00 40.38 39.03 52.85 53.15 53.80 54.23 54.52 55.67 56.82 57.44 57.86 58.51 59.30 60.21 60.99 61.92 62.95 64.12 64.55 63.81 64.96 66.09 66.22 66.50 66.99 67.53 67.65 67.29 67.50 67.99 67.56 67.50
49.62 46.08 40.05 41.51 45.38 50.24 47.45 48.25 48.84 47.25 44.95 42.58 38.73 40.39 51.43 53.81 53.53 54.63 54.71 55.54 56.29 57.37 58.17 59.05 58.98 59.02 59.96 60.66 60.88 60.92 61.55 61.54 62.68 63.70 64.91 65.34 65.22 66.05 66.43 66.36 66.64 66.26 65.86 65.79
51.85 47.35 43.29 38.49 39.40 43.97 43.84 46.42 47.66 46.98 43.32 42.49 42.09 42.82 48.79 51.37 52.35 53.59 54.68 55.28 56.24 56.96 57.63 57.13 57.29 58.18 58.95 59.61 59.35 59.25 59.63 60.35 60.17 60.59 61.34 61.59 61.71 62.52 62.73 63.04 63.09 63.21 63.40 63.01
50.19 43.58 45.93 45.34 44.43 42.45 41.99 44.22 46.13 44.41 45.44 41.32 44.20 45.06 45.59 48.81 50.06 50.87 52.32 52.47 52.46 53.48 54.93 56.34 56.80 57.29 59.05 59.91 59.06 58.12 58.28 58.50 58.52 57.65 58.04 58.41 58.97 59.67 59.61 59.19 60.16 60.85 61.01 60.96
49.47 43.33 44.74 43.00 45.54 43.92 41.96 45.18 45.74 46.13 46.66 46.13 46.09 45.08 49.85 50.20 51.48 51.39 52.17 52.51 52.42 52.98 53.60 54.89 56.71 56.67 56.61 56.59 56.77 56.56 56.43 55.88 55.54 55.00 54.42 55.11 55.77 56.26 57.54 57.65 58.05 58.33 58.19 58.30
45.60 44.21 42.36 38.19 41.73 41.09 37.96 41.72 42.77 44.27 45.71 45.11 41.58 46.25 50.85 49.17 49.59 50.13 51.04 51.39 52.22 53.65 54.39 54.67 54.86 54.80 54.94 54.94 55.14 54.38 54.58 54.97 54.61 54.60 54.77 54.64 54.58 54.47 55.34 55.62 55.60 56.06 57.55 58.39
43.48 43.37 43.22 38.11 39.41 30.62 43.23 46.99 46.18 44.79 45.69 46.60 46.44 48.31 49.58 49.45 50.50 51.29 52.03 50.50 51.07 52.00 52.33 52.94 53.17 53.28 55.00 54.63 54.32 54.53 54.42 54.19 53.81 53.81 53.76 54.23 54.12 53.47 53.92 53.90 53.65 55.54 55.71 56.06
46.58 44.18 39.67 36.12 36.09 39.95 41.88 44.61 45.30 43.72 44.30 48.42 46.00 47.13 49.11 49.23 49.99 48.96 51.52 51.15 51.43 51.71 52.56 53.56 54.07 53.45 53.66 53.80 54.14 53.55 53.42 53.43 53.23 52.86 53.11 52.97 52.67 52.20 51.88 51.62 52.58 54.17 53.70 54.21
44.64 45.57 41.51 37.85 29.71 31.56 43.32 47.07 49.14 48.38 40.77 48.47 48.90 47.10 46.56 47.55 44.78 44.57 49.82 51.11 50.58 50.98 50.74 51.62 53.20 53.28 53.25 53.75 53.94 52.55 51.81 51.61 51.32 51.71 51.72 51.77 51.55 51.00 50.65 51.32 51.47 51.96 51.86 51.57
38.18 39.23 37.41 36.61 34.36 39.48 46.61 47.73 48.56 38.34 40.81 48.32 48.51 47.62 47.35 46.66 47.48 49.03 50.82 50.36 50.82 51.25 51.81 52.79 52.87 52.19 52.68 53.24 52.81 50.83 50.51 49.92 51.05 50.94 50.66 50.69 50.87 50.53 50.81 51.09 51.41 50.95 49.78 48.92
38.37 37.56 37.24 38.03 34.39 32.01 48.32 46.59 41.22 47.66 50.08 48.42 47.72 47.29 46.45 48.17 49.22 50.06 50.31 50.09 49.61 50.06 50.69 51.28 50.64 50.70 51.37 51.41 50.47 49.12 48.66 50.13 50.25 49.93 49.43 49.34 49.94 50.14 50.01 48.81 48.36 47.79 46.77 44.71
38.30 42.93 40.27 41.18 40.74 48.67 49.81 48.88 50.87 50.51 48.96 47.16 47.76 47.79 48.48 48.71 48.98 49.18 49.16 49.25 49.48 49.50 49.70 49.78 48.62 48.27 48.56 49.22 49.52 47.85 48.54 49.13 48.57 48.23 48.08 48.51 47.58 46.26 46.19 44.45 43.02 42.42 43.82 41.62
43.25 46.97 42.45 42.00 45.48 46.77 48.34 50.05 49.48 49.36 47.72 48.87 48.55 48.46 48.68 47.42 47.88 47.37 47.49 47.28 47.13 47.55 47.26 47.80 47.28 46.73 46.83 48.29 48.37 48.23 48.15 48.04 46.79 45.48 44.39 43.32 42.64 42.24 39.86 39.91 40.91 39.47 39.21 39.26
44.11 45.62 42.30 42.29 45.77 46.48 47.27 47.44 47.96 48.33 48.73 47.90 48.48 48.06 47.04 46.57 45.60 45.14 45.01 45.74 46.36 46.64 46.74 46.46 45.51 44.86 45.05 46.59 46.73 46.93 45.07 42.98 40.64 39.78 39.58 39.34 37.19 37.16 38.57 38.42 39.22 38.61 40.77 40.64
45.98 42.66 40.26 40.78 46.22 47.19 45.60 47.26 47.81 46.92 46.43 46.88 46.05 45.71 45.92 45.45 44.33 44.99 44.42 44.53 44.20 43.47 43.46 42.78 42.80 42.88 42.95 42.59 42.07 41.23 40.35 38.40 36.61 35.08 34.69 35.26 35.46 35.91 36.11 36.45 37.11 39.26 38.48 38.32

GFSCGP_sfc_wetblb_138.txt.gz
Wetbulb
51.41 45.58 42.97 45.14 46.48 46.33 45.12 44.85 44.46 47.19 49.89 48.47 47.62 48.06 49.75 52.50 52.75 52.91 54.13 55.22 56.12 56.66 58.28 58.33 59.14 60.25 63.36 70.89 76.73 76.52 73.62 73.46 73.33 74.57 73.34 73.93 73.82 70.91 69.55 69.98 67.77 69.77 68.23 66.74
47.67 43.25 47.46 48.41 47.97 46.04 44.86 43.41 44.37 47.85 49.67 49.31 48.45 47.82 50.64 52.05 52.73 53.73 53.86 55.33 56.57 57.32 57.91 59.38 60.27 61.79 68.46 75.90 76.33 76.87 72.81 73.39 72.95 72.63 69.55 68.41 70.18 71.20 69.55 67.35 69.16 68.98 67.30 67.10
44.55 46.63 49.33 47.58 46.04 44.90 44.53 43.06 44.02 45.56 48.27 48.99 47.81 45.94 48.65 51.46 52.93 53.90 54.36 55.05 56.36 56.97 58.07 59.39 61.11 70.59 73.09 74.36 74.94 74.56 72.60 71.06 70.06 68.49 69.04 68.63 66.53 68.83 68.10 65.90 66.43 68.16 67.32 67.01
45.95 49.28 47.54 45.87 44.85 45.76 42.13 46.00 45.72 46.41 45.08 41.56 48.02 39.07 47.69 49.89 51.17 52.30 53.41 54.43 55.78 58.02 58.97 61.96 64.89 69.04 71.61 73.82 73.59 74.59 73.99 70.91 68.96 68.14 67.98 66.56 67.77 65.43 65.48 67.05 66.81 66.74 68.24 66.74
45.20 46.40 46.35 44.93 45.15 46.73 43.71 47.13 45.90 46.02 44.97 44.56 44.70 42.06 46.02 50.93 49.19 50.75 53.02 54.40 56.78 57.38 59.06 60.01 63.54 65.72 70.26 71.77 72.20 73.95 74.52 72.60 69.87 69.03 67.22 66.57 64.99 67.42 67.54 66.56 67.17 68.74 68.55 67.04
47.49 51.23 48.75 47.82 48.00 46.85 47.95 46.79 47.19 46.71 44.45 39.11 43.11 42.69 43.28 46.42 49.70 51.32 53.14 54.71 56.78 57.05 58.10 60.39 62.81 64.68 64.79 68.60 70.29 73.44 73.57 71.55 69.62 67.18 67.77 65.45 64.00 65.55 65.55 65.07 68.77 69.77 68.63 67.45
45.73 46.18 49.40 49.75 46.14 47.91 46.68 44.55 38.10 36.90 37.60 37.42 44.96 42.59 45.29 50.73 51.83 52.47 53.45 55.32 56.82 57.29 59.19 60.51 61.94 62.10 64.68 65.49 67.17 70.57 73.63 72.45 71.71 69.56 68.54 68.02 68.28 70.43 69.93 68.00 69.99 70.82 70.20 69.71
40.79 39.08 46.77 49.61 47.18 45.06 45.09 44.35 38.62 32.83 34.99 38.18 44.79 40.96 44.82 51.98 53.37 54.83 55.06 55.43 56.38 57.10 59.02 59.57 61.63 62.73 62.36 64.85 66.18 66.52 68.84 69.04 71.40 72.57 71.46 71.05 70.21 70.25 72.67 72.36 71.40 70.97 70.02 71.20
40.29 41.07 48.41 48.64 49.08 48.32 44.97 42.04 47.25 42.33 43.17 38.91 42.19 45.90 50.21 52.40 52.47 53.31 53.58 55.05 56.71 58.14 59.51 59.92 62.22 63.88 65.66 67.19 68.65 69.21 69.20 70.19 70.27 70.78 72.44 73.23 73.74 73.87 73.14 72.63 73.03 72.13 70.76 70.64
44.11 40.13 46.91 48.31 49.60 49.27 47.10 48.21 40.95 42.26 34.09 33.41 40.06 42.30 42.75 49.16 50.39 51.93 52.62 54.85 56.59 57.50 58.22 59.84 61.62 64.48 65.94 66.92 68.17 69.03 69.88 67.99 69.14 70.76 71.23 71.24 72.45 72.20 73.19 72.60 71.32 69.42 68.51 68.32
46.04 43.16 44.35 47.54 45.77 43.93 44.46 43.66 44.91 44.57 42.50 37.32 35.63 39.06 50.05 50.14 52.38 52.64 52.45 55.39 56.26 56.32 57.21 58.43 60.33 61.97 63.12 64.26 64.56 65.12 66.25 66.61 67.99 69.69 70.79 70.69 70.38 69.26 67.34 66.90 67.45 65.34 66.84 67.17
47.84 44.07 38.33 42.89 48.88 50.26 48.39 44.95 44.86 40.75 38.60 42.29 40.82 38.41 51.27 52.00 53.59 53.49 51.10 52.10 56.24 57.21 57.53 57.72 58.18 60.13 60.47 61.68 62.25 63.06 62.97 62.20 62.23 64.75 63.63 63.28 65.26 66.63 66.52 67.22 67.89 68.33 67.73 66.87
49.56 43.65 37.94 40.30 44.82 48.42 46.13 46.79 47.03 46.84 45.75 40.81 38.01 40.61 51.53 52.45 53.13 53.62 51.23 52.39 55.72 56.50 57.38 58.54 58.02 58.58 58.92 60.09 60.44 60.14 60.52 61.11 62.38 61.90 62.37 61.89 61.99 62.27 63.04 62.94 63.47 64.31 64.18 65.01
50.64 46.20 42.68 37.12 40.67 44.76 43.26 45.32 47.18 44.81 41.71 39.81 40.20 41.86 46.68 47.76 48.37 49.67 54.69 55.54 55.85 57.01 57.26 57.73 57.88 58.57 59.01 58.51 59.28 59.09 59.47 59.99 60.41 60.89 61.12 60.88 61.36 62.04 61.57 61.17 61.03 61.74 62.63 62.60
48.63 40.43 42.61 44.36 43.87 43.88 43.54 42.99 44.94 42.70 42.93 38.99 41.87 44.02 46.35 45.91 47.02 48.57 52.51 52.32 52.16 52.59 53.38 55.01 57.57 58.18 58.23 59.09 57.25 58.14 57.05 56.99 57.63 57.93 59.15 59.20 59.85 60.87 60.58 60.21 60.13 60.43 61.27 60.55
48.83 41.01 44.10 40.32 44.63 43.35 39.90 42.63 44.55 44.88 45.48 45.99 46.13 44.98 49.90 49.78 50.24 50.77 51.47 52.09 51.99 52.56 53.19 54.74 56.66 56.32 55.72 55.73 55.99 56.24 56.09 55.72 56.86 56.26 55.42 56.96 57.35 57.73 58.48 57.83 58.13 59.63 59.12 58.87
45.13 43.83 40.91 37.22 43.64 42.63 37.43 40.30 43.36 44.46 46.79 47.05 42.86 46.82 50.61 49.51 49.85 49.85 50.64 51.53 51.42 52.63 53.50 54.00 54.35 54.51 55.03 54.76 55.06 54.53 54.86 55.73 55.38 55.18 54.88 55.10 56.01 55.64 56.69 56.62 56.21 56.35 56.67 57.03
43.75 42.76 42.37 38.20 39.89 30.27 42.45 47.60 46.43 44.82 45.18 46.52 46.58 49.00 49.82 49.96 50.87 51.34 51.86 51.23 51.17 51.86 52.30 52.80 53.22 53.63 54.32 54.74 55.31 54.99 54.54 54.70 54.27 54.08 54.19 54.48 54.13 53.80 54.06 54.13 53.85 55.00 55.14 54.49
46.38 44.47 39.82 36.07 36.16 40.06 42.59 45.20 45.24 43.85 43.25 48.97 48.21 49.18 49.88 50.51 50.67 49.56 51.79 51.87 51.71 52.17 52.82 52.93 53.58 53.60 54.11 54.16 54.88 53.89 53.88 53.81 53.21 52.54 52.98 53.04 52.54 52.02 51.83 51.21 52.06 52.84 52.45 52.16
44.84 45.27 42.02 38.28 33.14 31.10 42.59 46.98 49.44 48.23 40.51 49.36 49.89 48.62 48.65 49.40 43.10 46.02 51.17 51.49 51.17 51.90 52.27 52.35 52.98 53.54 53.95 54.41 55.30 53.77 52.48 51.89 51.26 51.60 51.77 51.85 51.76 51.06 50.44 50.99 50.84 51.35 51.60 51.16
39.42 40.92 36.93 36.86 35.30 39.04 46.60 48.02 48.81 37.45 39.63 49.44 49.49 48.83 48.72 46.67 48.17 50.66 51.59 51.59 51.98 52.03 51.80 52.38 52.51 51.65 52.99 54.40 54.01 51.85 51.22 49.97 51.16 51.07 51.04 50.69 50.68 50.15 50.61 51.18 51.36 49.84 48.89 48.81
38.10 36.81 36.52 39.21 35.36 31.87 48.45 47.01 42.00 47.36 50.27 47.98 48.53 49.05 48.62 48.94 49.52 50.04 50.41 50.43 50.91 50.74 50.99 51.49 50.96 51.13 52.37 52.00 50.51 49.25 48.94 50.62 50.41 50.02 49.49 49.33 49.51 49.43 48.37 47.42 47.05 46.41 45.73 44.71
38.38 41.94 40.11 41.32 40.51 49.02 50.24 49.06 51.02 50.87 48.10 48.70 47.66 48.07 48.55 47.99 48.59 49.06 48.84 49.30 49.43 49.24 49.09 49.34 48.47 48.99 50.17 49.90 50.04 48.45 48.93 49.77 48.92 48.48 47.90 46.68 44.84 45.00 44.54 42.56 42.21 41.26 41.71 40.43
44.79 47.98 43.08 43.09 46.00 47.06 48.39 50.42 50.30 50.06 48.35 48.77 49.49 48.83 48.38 47.40 48.00 47.62 47.61 47.14 46.89 47.37 47.06 47.65 47.06 46.43 46.94 47.81 47.72 48.08 47.70 45.46 43.82 43.08 42.08 42.00 40.73 40.81 40.46 39.27 39.33 37.78 38.12 38.57
44.47 46.15 42.76 42.35 46.38 47.09 47.99 48.02 48.37 48.00 48.59 48.14 48.87 48.38 47.27 46.74 45.93 45.78 45.10 45.28 45.54 44.94 44.89 44.69 43.87 43.64 43.95 44.83 44.55 44.67 43.12 41.40 39.44 38.70 38.25 37.62 37.59 36.62 36.01 37.20 37.27 37.43 38.25 38.26
46.11 43.89 41.98 40.95 46.80 46.45 46.43 47.39 48.06 46.97 46.24 46.64 46.05 45.32 45.86 45.19 44.20 44.69 44.67 44.88 43.61 42.42 42.31 41.76 41.56 40.97 40.77 40.84 40.58 39.97 39.69 37.80 35.82 35.11 35.45 35.15 34.62 35.35 35.30 35.87 36.37 38.41 38.28 38.42

GFSCGP_sfc_wetblb_141.txt.gz
Wetbulb
48.47 41.57 39.22 41.49 42.44 43.12 42.61 41.13 39.81 42.55 45.51 44.19 43.29 43.50 45.31 47.89 47.87 47.08 48.55 50.09 50.44 50.65 52.42 53.04 54.32 54.28 53.97 57.98 69.47 70.34 68.09 65.12 65.31 70.43 64.60 69.67 68.25 67.68 67.36 66.73 67.87 65.83 64.85 64.01
45.70 40.55 44.84 46.71 45.71 43.94 43.01 40.60 39.85 42.79 45.95 44.41 43.42 43.09 45.98 47.69 47.93 49.04 49.59 49.82 51.02 50.99 52.43 53.87 53.17 52.92 53.50 68.87 69.61 71.32 70.88 69.70 69.37 69.13 67.37 69.17 68.52 66.60 66.73 66.62 66.88 65.59 65.79 65.01
41.75 45.08 48.60 46.49 44.50 43.03 42.11 40.66 40.42 40.07 44.10 45.38 43.82 40.89 43.95 48.24 49.38 49.92 50.57 50.12 50.75 50.53 52.16 52.81 53.27 52.84 69.57 71.70 70.44 71.05 69.79 68.04 68.90 67.93 66.40 65.84 66.11 67.01 64.99 65.90 66.01 64.81 65.38 65.35
44.04 48.10 47.31 45.51 43.39 44.37 39.96 44.97 43.97 42.76 41.29 35.82 43.12 32.53 41.35 45.35 47.71 49.88 49.59 48.51 50.76 52.81 54.39 53.79 61.72 67.82 70.11 71.37 70.81 70.22 69.27 68.89 68.16 67.00 65.56 63.95 63.02 61.88 62.74 63.61 63.64 63.65 64.85 65.17
42.77 44.72 44.71 43.25 43.86 46.37 42.17 46.30 44.59 43.20 39.92 38.22 40.22 34.73 38.51 44.54 45.18 47.36 48.48 51.32 51.18 53.07 55.14 58.29 64.98 65.32 70.78 70.25 70.14 68.49 67.30 66.77 67.22 66.34 65.27 63.44 63.70 63.86 62.28 63.33 61.91 62.67 63.42 63.65
46.16 49.90 47.62 45.78 47.82 47.47 47.14 44.64 43.23 41.95 38.21 31.92 37.49 37.06 36.45 40.46 45.19 47.64 49.97 52.16 52.46 53.40 55.95 57.34 57.86 58.59 58.99 67.35 68.37 70.51 68.66 66.21 64.86 64.32 64.36 63.53 63.70 64.28 62.87 62.22 62.54 63.01 64.06 64.86
44.16 45.08 47.38 49.13 45.34 45.86 44.81 37.73 30.42 31.69 31.80 30.66 39.88 37.98 38.40 44.76 49.48 49.84 51.55 51.17 51.65 53.80 55.16 56.24 56.42 56.33 58.36 60.56 63.69 69.39 69.68 68.00 66.26 64.34 63.57 62.59 59.43 60.69 61.31 62.37 62.69 64.15 64.61 64.89
37.34 35.34 44.72 48.53 44.92 40.67 39.75 37.61 32.30 26.54 27.77 31.62 41.84 36.47 40.08 47.61 51.94 52.68 53.42 51.47 53.61 53.39 54.70 56.13 57.11 58.93 61.99 63.38 63.62 64.04 67.95 66.94 67.13 64.41 63.68 64.23 64.16 65.15 65.87 66.37 63.33 65.45 67.78 67.04
37.20 38.47 48.60 48.50 48.85 46.77 40.86 38.02 41.82 37.63 39.31 34.27 36.66 40.41 46.97 48.63 50.36 50.77 50.90 52.73 52.15 53.07 54.94 57.31 59.26 60.34 61.40 62.28 62.72 63.96 64.15 64.98 67.59 68.71 67.78 67.17 66.36 65.98 66.48 67.77 67.10 66.35 66.00 63.60
43.40 36.10 45.62 47.64 48.95 48.19 44.59 45.43 37.74 37.81 30.06 27.40 34.79 38.63 40.06 46.16 48.30 49.00 51.21 50.60 51.66 53.52 54.68 57.37 59.33 60.79 61.24 59.84 59.93 60.34 61.38 64.19 64.70 65.19 65.12 66.38 66.16 66.45 66.39 64.82 62.91 62.99 61.25 58.22
44.02 40.68 41.26 46.33 43.58 40.88 41.71 41.05 40.81 39.84 37.09 29.92 30.80 36.38 47.28 46.61 48.97 49.08 48.90 49.47 49.29 50.45 53.39 55.26 57.14 58.25 59.56 59.34 58.85 58.39 58.81 60.73 61.22 61.29 61.61 61.70 63.98 63.67 63.55 60.20 58.96 61.56 58.79 57.73
44.42 41.07 36.79 39.37 45.75 48.24 46.98 41.71 41.38 32.93 33.65 37.15 37.07 35.31 49.62 48.67 50.45 51.03 49.61 51.38 52.63 54.97 53.60 53.29 54.29 56.07 56.79 56.85 56.84 56.22 56.32 58.42 58.88 59.38 58.87 59.33 59.55 60.01 59.78 60.29 60.76 62.11 63.26 63.86
45.11 39.27 35.04 37.12 41.29 45.80 42.53 43.19 43.35 42.05 41.37 37.31 35.19 35.90 49.56 50.24 48.51 50.21 49.50 51.75 53.10 54.37 54.42 53.33 53.57 54.08 55.02 54.98 55.81 55.33 55.00 54.54 56.99 59.57 58.75 58.30 58.47 58.77 58.44 59.08 59.92 60.37 60.30 60.22
48.71 42.50 39.30 34.40 39.30 42.79 41.99 44.21 44.54 39.94 34.45 37.84 38.16 41.02 46.00 47.06 46.36 47.06 47.61 48.77 50.80 50.95 53.87 54.19 52.33 53.68 54.24 53.85 53.57 53.40 52.61 52.89 53.29 54.74 54.19 52.85 53.30 55.96 55.49 55.79 55.76 55.25 55.94 55.33
46.73 39.99 42.05 42.42 41.94 42.80 42.81 41.99 42.73 41.61 41.79 37.35 40.69 41.37 45.75 46.38 46.03 47.06 48.16 49.37 51.09 50.29 50.60 53.51 52.35 51.91 51.92 52.10 52.52 52.12 51.53 51.81 51.75 51.70 50.81 51.01 51.46 51.72 51.37 51.66 52.28 53.20 53.31 53.98
45.97 38.66 40.89 39.51 43.61 42.54 40.12 42.43 42.75 43.31 44.02 43.34 41.51 42.36 48.34 49.71 49.51 47.87 48.56 49.76 49.97 51.15 51.84 51.85 51.67 51.49 50.84 50.86 50.69 51.01 50.73 50.61 50.73 50.30 49.86 51.07 50.81 50.58 50.35 51.07 50.39 50.76 51.06 52.05
42.87 40.67 38.09 35.71 41.70 41.16 35.89 39.12 41.72 43.67 45.75 44.85 39.47 42.19 48.13 47.12 47.51 46.33 47.69 49.01 49.02 49.19 50.02 49.79 49.92 49.97 49.90 49.61 49.83 48.98 49.57 50.45 50.29 50.01 51.06 51.28 50.67 49.83 48.97 49.11 48.87 48.98 49.03 49.16
39.94 37.72 37.84 34.80 39.26 27.67 39.21 45.57 45.73 44.65 46.44 47.32 46.74 46.50 48.38 47.51 46.73 47.65 48.62 47.77 48.41 49.14 49.12 48.59 48.80 48.34 48.53 48.89 49.19 49.35 49.97 49.96 49.93 49.23 49.59 50.02 48.88 48.17 47.59 46.93 46.59 46.71 47.06 47.21
42.82 40.45 33.97 30.27 29.34 37.78 41.93 44.01 43.99 42.63 41.27 47.11 44.87 45.55 46.82 46.68 46.62 44.42 48.38 48.51 47.28 47.27 47.65 47.83 48.07 47.77 47.84 48.64 49.43 48.97 48.49 48.65 48.68 48.54 48.31 48.37 47.85 46.62 46.48 45.69 45.37 45.49 45.41 45.42
42.62 41.21 35.68 32.29 27.03 26.84 39.16 45.72 48.21 47.89 36.90 46.30 46.94 44.92 44.92 45.08 38.44 41.03 46.51 47.80 47.37 47.49 47.12 46.65 47.37 47.74 47.88 49.34 49.07 47.45 46.43 46.01 45.94 47.17 47.07 47.10 46.68 45.70 44.93 44.50 44.61 45.00 44.39 44.22
34.89 35.54 31.97 32.66 30.38 36.46 44.98 47.04 48.13 33.77 37.28 46.10 45.76 44.63 43.87 42.36 43.42 45.57 48.74 48.05 47.58 47.28 47.30 47.29 46.36 45.76 46.19 46.08 44.74 43.78 43.78 43.53 45.71 46.74 46.57 46.01 44.57 43.80 42.83 42.03 41.83 41.52 41.08 41.25
33.74 30.70 29.21 32.30 28.74 28.98 48.43 46.51 40.94 43.62 46.03 46.96 45.06 44.51 43.77 44.08 45.85 45.87 46.08 45.72 46.14 45.57 45.03 45.17 44.24 44.15 43.72 44.16 43.45 42.81 42.19 44.38 44.97 45.09 43.32 40.99 39.99 41.52 41.80 38.62 38.33 38.63 38.04 38.08
32.26 37.96 34.74 36.26 35.47 44.92 47.15 45.51 47.69 46.29 44.70 45.44 45.46 44.62 44.89 44.22 43.84 44.32 43.39 44.07 44.51 42.91 42.38 42.63 41.65 41.30 42.15 42.49 42.55 40.40 39.47 41.10 41.11 40.19 38.85 38.26 38.23 38.34 37.87 36.66 35.73 36.22 36.80 36.76
42.38 44.06 38.05 40.10 43.90 45.35 47.21 46.86 47.36 46.52 44.89 47.42 47.55 46.32 45.03 41.31 41.99 41.44 40.99 40.54 40.44 40.34 40.22 40.19 39.47 38.92 39.01 40.11 40.95 39.26 39.22 38.80 37.69 35.82 35.44 35.84 35.06 35.67 34.73 35.57 36.36 37.19 36.88 37.15
40.35 42.72 40.28 40.01 43.55 44.22 45.80 45.36 45.23 45.24 45.58 45.49 45.26 43.05 41.35 40.52 40.00 39.88 39.42 39.72 39.14 38.05 38.20 38.32 37.15 36.94 37.42 38.12 37.83 37.60 37.01 35.85 33.88 33.39 33.43 32.98 33.33 32.73 34.15 36.01 36.22 36.47 37.47 37.52
42.96 40.46 36.74 36.60 43.54 44.13 44.07 44.91 45.98 43.40 41.45 41.27 40.51 40.30 41.39 40.42 39.17 39.38 38.40 38.33 36.96 36.25 36.41 35.50 35.17 35.10 36.05 35.40 35.51 35.35 34.94 33.90 32.03 31.88 33.00 32.40 33.32 34.30 34.90 34.10 35.35 38.02 37.80 38.13

GFSCGP_sfc_wetblb_144.txt.gz
Wetbulb
46.24 39.96 37.88 39.61 40.48 39.55 40.25 38.51 37.75 40.44 43.92 41.04 40.38 42.10 43.86 45.47 44.64 44.57 45.70 46.91 47.48 48.30 51.07 51.41 51.18 51.20 51.15 56.39 67.82 69.16 67.80 66.92 69.90 70.19 69.08 68.00 66.14 65.76 65.26 66.68 66.34 65.94 65.94 66.72
42.50 39.24 43.97 45.02 43.74 41.13 40.44 38.48 38.35 40.93 43.99 40.64 41.11 40.95 44.23 44.70 44.96 45.94 46.84 46.81 47.89 48.71 49.01 50.18 50.39 50.53 50.73 58.63 67.99 68.63 67.10 66.32 68.20 65.47 64.72 67.01 66.73 65.62 65.94 66.12 64.88 65.09 65.03 66.01
38.84 43.23 47.52 45.18 43.44 41.65 40.18 38.41 38.92 38.67 42.39 42.80 40.46 39.82 41.40 44.67 46.33 47.46 47.93 48.66 48.38 49.55 49.88 50.09 51.29 49.77 58.13 66.20 67.86 67.24 65.47 65.47 67.46 65.52 66.31 65.76 64.70 64.58 65.19 64.17 64.09 65.07 65.11 65.31
40.84 46.14 45.37 44.38 42.62 43.42 37.71 43.55 42.80 41.58 40.22 34.36 40.32 31.66 38.35 43.00 44.80 46.81 48.28 46.76 49.67 52.75 53.25 51.39 52.70 58.38 65.42 66.48 69.54 68.72 67.13 66.34 66.62 66.85 65.61 64.36 64.17 62.39 63.36 64.50 65.24 65.22 64.90 64.17
39.80 42.77 42.55 42.54 43.41 45.94 41.18 45.52 43.52 42.74 40.19 35.63 37.50 33.16 36.97 41.09 42.20 43.98 46.45 48.23 49.25 55.02 61.32 60.25 65.87 67.12 68.63 68.52 69.28 68.16 67.77 67.57 67.57 66.70 66.43 65.60 64.39 64.35 62.88 63.95 63.32 62.66 62.70 63.66
42.87 48.27 46.28 44.90 47.10 47.48 47.67 44.66 42.22 41.41 38.08 31.56 36.45 34.94 34.35 38.18 42.40 44.46 46.18 49.84 52.57 55.15 55.65 55.94 58.69 60.13 66.05 68.29 67.89 67.68 67.53 66.85 66.56 66.22 65.28 64.16 63.17 61.45 60.05 60.49 59.92 60.64 61.34 62.16
41.25 42.95 46.70 48.72 44.23 46.59 44.69 40.42 31.86 29.68 29.48 28.11 36.55 35.20 36.02 42.60 46.52 48.00 48.74 48.64 51.99 52.54 54.37 57.91 59.39 60.91 61.45 63.58 67.53 67.19 66.72 64.87 65.23 63.53 63.10 62.36 60.93 61.46 61.18 60.32 60.67 60.59 61.63 61.95
35.46 33.92 43.26 47.83 44.31 39.32 39.43 40.02 28.91 23.78 25.20 28.68 38.27 32.52 36.59 46.15 50.12 51.51 52.33 52.06 53.41 53.93 57.18 59.06 60.08 60.44 61.31 62.54 62.59 66.04 66.61 65.01 64.47 64.30 63.09 62.41 61.10 60.73 61.14 62.12 62.05 62.13 62.75 63.60
37.59 37.16 46.22 47.35 47.77 44.77 40.48 35.95 41.20 33.31 35.76 30.54 33.07 38.74 47.51 49.87 49.41 51.31 52.22 53.37 53.33 55.06 57.74 58.52 59.59 59.02 59.17 59.58 60.26 62.62 63.47 64.21 64.56 63.10 62.10 62.00 63.14 62.90 62.94 62.97 64.26 63.70 63.73 63.58
41.90 35.81 43.96 45.34 47.33 47.33 43.76 42.55 35.06 35.23 26.60 25.62 32.35 37.92 39.86 44.43 46.32 48.78 48.98 48.44 50.33 55.31 57.96 58.81 57.69 56.39 56.82 57.73 58.74 60.25 60.09 59.53 60.77 62.42 64.40 64.15 63.42 64.00 64.09 63.31 61.95 61.43 59.54 58.25
43.15 38.73 39.20 44.57 42.16 40.57 40.14 38.92 38.81 37.42 34.66 28.04 30.14 33.94 46.19 45.68 45.95 46.49 46.50 49.29 50.67 50.20 55.41 56.69 56.20 56.61 55.85 56.53 57.47 57.59 58.58 58.40 58.72 59.33 59.32 60.17 60.42 61.28 60.96 59.06 60.27 60.52 58.67 58.21
42.90 40.29 34.81 37.32 44.28 46.83 44.46 41.01 38.08 31.35 31.60 34.92 36.50 35.51 49.02 47.97 47.73 49.14 49.42 50.80 51.81 52.42 52.60 52.13 54.79 54.37 54.17 53.34 53.55 52.98 54.19 55.81 55.95 56.62 57.28 57.21 57.01 57.50 57.49 58.11 58.72 60.27 60.40 60.31
43.39 37.07 31.79 35.87 40.67 44.47 42.59 42.72 42.51 39.27 38.53 35.13 32.85 34.08 48.12 49.60 48.81 48.79 47.94 49.69 51.64 52.89 52.62 53.22 51.97 50.71 51.80 51.60 51.12 50.96 51.41 51.88 54.19 53.63 52.24 52.47 53.60 54.19 55.46 55.54 54.59 55.94 57.02 57.94
47.66 39.09 35.97 30.76 37.08 41.63 39.90 42.66 43.33 39.78 33.77 36.08 37.13 40.31 44.55 46.37 47.31 48.58 48.55 47.39 48.32 49.78 52.99 53.00 50.19 49.22 50.26 50.40 50.31 49.91 49.23 49.63 49.93 50.45 49.82 48.98 49.00 49.24 49.95 52.00 53.39 53.87 53.18 52.28
45.90 37.85 39.46 39.15 42.34 41.88 42.52 42.34 42.85 40.45 40.15 35.97 39.36 41.38 43.32 45.45 47.27 48.26 49.84 49.80 50.91 52.17 52.48 50.61 49.04 48.73 47.98 47.96 49.02 49.27 49.05 49.53 48.92 48.80 48.45 48.13 48.10 48.47 48.93 49.96 49.96 50.38 50.77 52.01
43.68 38.14 40.17 36.25 40.16 40.42 40.59 42.77 42.92 43.27 43.52 42.35 42.09 42.43 48.37 47.39 49.23 47.51 49.00 49.43 50.53 50.27 50.23 50.17 50.35 49.39 48.24 48.03 48.40 48.93 48.70 48.87 48.90 48.42 48.53 48.71 47.98 47.57 47.10 47.06 47.30 47.91 48.01 48.40
39.68 39.53 38.48 33.68 41.33 38.49 35.52 40.18 41.91 42.79 44.64 45.12 40.12 43.08 47.45 47.67 46.84 46.64 47.85 49.78 49.18 49.23 49.50 49.02 49.05 49.05 48.51 47.78 48.20 47.45 48.12 48.78 48.30 47.79 48.67 47.87 47.05 46.63 45.80 45.84 45.94 45.67 45.21 45.26
41.13 40.21 37.98 34.77 37.92 28.63 39.65 45.57 46.50 44.68 46.08 46.74 44.80 45.90 48.81 44.80 45.81 46.75 48.35 47.75 47.85 48.56 48.52 47.48 46.14 46.41 47.35 47.91 47.76 47.80 48.44 48.22 47.71 46.81 47.19 47.19 46.50 45.83 45.20 44.64 44.17 44.12 43.73 43.75
41.81 39.11 33.75 32.73 30.96 38.38 40.73 42.62 43.05 41.27 40.58 46.85 44.70 46.49 45.10 45.80 45.66 43.77 47.45 47.14 46.00 46.36 46.43 46.09 46.59 46.61 46.38 47.32 47.56 47.43 46.58 46.21 46.50 46.09 45.64 46.18 45.77 44.38 43.42 42.27 41.94 42.14 41.56 41.79
41.60 40.64 35.13 31.36 28.73 27.81 39.68 44.64 47.95 46.11 36.75 45.73 45.88 44.29 43.85 43.72 38.12 40.16 45.25 46.98 46.08 46.21 45.96 45.65 46.19 45.98 45.65 45.02 45.05 43.98 43.00 43.18 44.11 44.85 44.78 43.46 43.35 41.83 40.22 39.61 39.35 39.38 39.14 39.45
34.14 33.09 29.68 28.75 26.83 36.43 44.31 47.20 48.09 33.06 36.97 45.09 44.61 43.60 43.73 42.26 42.51 43.98 45.48 45.71 45.99 45.72 45.59 44.96 43.52 41.82 40.85 41.29 42.16 40.89 40.35 39.98 42.54 42.59 41.64 40.46 39.44 39.52 38.47 36.95 36.82 36.49 36.51 36.86
32.07 29.28 27.04 29.42 24.36 27.98 46.52 45.72 39.62 41.90 43.38 43.36 43.26 42.14 43.20 43.81 44.28 43.68 43.75 42.49 41.23 40.19 40.60 41.05 40.47 39.32 39.60 40.50 39.55 37.81 37.02 39.05 40.19 39.77 38.80 37.54 36.62 37.79 38.21 35.13 34.51 34.46 34.06 34.08
30.58 35.84 31.93 33.82 32.75 42.04 44.79 43.65 44.83 44.75 43.21 44.45 43.05 42.37 42.25 40.76 40.30 39.89 38.38 39.03 38.91 38.52 38.13 38.16 37.47 37.66 37.69 38.56 38.09 35.69 36.01 37.40 37.17 35.68 34.84 34.62 35.10 35.37 34.72 33.17 32.27 32.64 33.93 35.25
40.02 41.06 38.24 38.72 43.81 43.49 44.50 44.72 44.46 44.17 42.52 42.16 41.58 40.22 39.86 37.51 37.77 37.58 37.32 36.47 36.33 36.61 36.53 36.60 35.60 35.40 34.94 36.35 36.81 35.28 35.60 35.68 34.47 32.78 32.49 32.81 32.10 33.04 31.89 32.91 33.21 33.15 35.39 35.95
37.92 39.94 38.74 39.71 43.47 44.60 44.80 44.57 40.81 40.28 40.57 40.13 40.18 39.55 38.49 38.02 37.03 36.86 36.03 35.69 35.32 34.42 34.51 34.53 33.57 33.53 33.63 34.58 34.33 33.89 34.28 33.38 31.41 31.03 31.27 30.18 30.71 30.02 31.47 33.60 35.56 35.90 37.13 37.24
40.16 37.90 36.31 37.71 42.68 41.12 40.40 41.60 41.39 38.85 38.85 39.60 38.27 36.75 36.70 36.57 34.96 35.19 33.69 33.92 32.95 32.08 32.39 31.90 31.81 31.64 32.48 32.60 32.69 32.84 33.35 32.38 29.83 28.91 31.47 31.89 33.29 34.18 34.56 34.32 35.07 38.00 37.68 38.04

GFSCGP_sfc_wetblb_147.txt.gz
Wetbulb
44.71 39.86 35.35 37.38 37.32 37.65 37.13 35.82 35.24 38.08 41.56 40.17 38.83 38.54 41.16 43.98 42.87 42.22 42.75 43.38 44.38 46.29 49.61 49.17 49.53 49.49 48.77 63.86 65.66 66.00 66.59 67.11 69.16 68.12 66.79 66.17 66.09 65.01 65.26 65.69 66.14 66.75 67.29 67.11
40.59 37.80 42.70 43.63 41.49 39.78 38.50 35.85 35.36 38.98 42.19 39.30 38.30 38.68 41.51 43.26 43.03 43.20 44.62 44.60 45.49 46.06 47.66 49.85 49.80 48.13 48.94 62.13 65.79 65.83 66.77 68.02 68.83 69.20 67.24 66.31 65.40 64.13 64.63 64.48 64.92 65.56 66.17 66.37
37.97 40.98 45.90 43.86 42.10 39.70 37.38 35.94 36.00 36.39 40.98 41.40 38.31 37.18 39.21 43.50 43.95 45.61 45.17 45.40 45.88 46.71 47.14 49.00 49.24 48.84 51.82 62.64 65.79 66.84 65.80 67.80 68.38 67.02 65.85 64.99 64.63 64.97 63.54 63.19 63.20 64.38 65.61 66.03
39.68 43.89 42.64 42.49 41.14 41.29 36.14 41.18 40.51 39.71 38.13 31.19 38.34 28.80 36.77 40.51 42.29 43.10 45.08 44.27 45.91 47.42 49.20 49.56 48.84 47.80 54.96 62.31 66.37 66.77 65.65 67.17 65.94 65.51 64.89 65.54 63.75 63.62 63.36 63.17 64.04 64.09 64.56 64.74
38.08 39.85 40.05 39.26 41.30 44.21 39.33 44.01 41.17 41.30 38.89 35.13 37.64 30.75 35.95 38.45 40.37 41.61 44.25 46.23 45.56 51.48 55.60 56.22 52.16 61.65 63.71 65.81 65.01 64.08 63.79 64.77 65.26 65.00 65.76 64.86 62.67 62.63 62.45 63.45 63.05 62.76 62.52 63.58
41.33 45.24 43.54 42.56 44.97 45.79 46.22 43.88 42.57 40.73 37.62 30.31 35.43 33.20 31.86 36.04 40.12 41.88 44.60 45.36 52.31 54.30 54.80 59.12 63.63 66.47 65.80 67.91 67.80 66.25 65.20 65.31 65.60 65.39 64.11 63.88 62.29 61.53 60.73 60.43 60.14 59.90 60.34 61.59
40.70 40.78 43.46 46.42 41.26 44.41 43.86 38.56 31.72 29.28 29.03 28.15 36.26 32.34 34.78 40.06 43.45 44.76 46.24 48.40 50.83 52.17 56.79 59.05 60.25 61.74 64.98 65.70 66.57 66.85 65.27 64.96 63.63 63.20 62.63 62.03 61.26 60.68 59.90 59.13 59.74 59.93 59.99 60.26
34.82 31.83 40.97 45.60 42.60 39.10 41.09 40.05 30.93 26.04 23.68 29.44 36.07 31.05 34.57 45.36 48.60 47.93 48.58 49.79 51.86 56.42 57.95 59.27 60.63 61.58 62.64 64.96 66.55 66.70 65.70 64.75 63.96 62.48 61.49 60.93 60.09 60.43 60.91 60.63 60.45 60.32 60.34 60.57
36.41 35.66 45.04 45.76 46.06 45.54 38.59 37.16 40.38 32.41 37.24 29.92 32.30 36.05 44.14 47.86 47.46 49.20 50.76 52.22 53.64 55.92 57.22 57.40 58.35 58.77 59.66 60.82 61.09 62.62 65.06 63.15 62.66 62.67 61.75 61.38 61.72 60.97 60.78 60.99 61.02 61.18 61.23 63.71
40.91 35.62 42.87 45.30 45.54 45.15 42.58 42.92 34.22 35.76 27.04 26.68 32.01 36.20 37.18 42.59 44.27 46.28 48.08 48.24 53.00 55.64 54.70 54.81 56.28 57.41 58.41 58.41 58.58 59.54 60.11 61.00 62.99 63.61 63.82 62.88 61.57 62.85 62.95 62.82 62.59 62.56 61.46 61.43
43.76 39.45 38.79 43.32 40.01 38.35 38.66 38.78 39.41 35.36 31.89 27.02 29.10 32.21 43.82 43.55 44.80 45.34 47.00 48.66 49.34 53.45 53.13 54.06 54.65 55.97 56.09 56.50 56.71 56.88 57.33 57.43 57.42 58.16 58.61 59.06 60.31 60.65 60.58 59.56 59.64 58.51 57.29 57.56
44.38 40.36 35.07 37.28 43.47 45.55 43.92 38.71 38.67 29.61 29.54 32.28 32.29 34.55 46.98 45.46 46.29 47.74 47.82 51.11 50.59 50.81 49.95 50.60 52.02 52.09 51.61 52.01 53.71 53.87 54.62 54.32 54.17 54.93 55.05 54.70 55.51 55.73 55.99 56.31 57.88 58.64 57.86 58.93
44.59 37.98 32.44 34.71 39.96 43.39 40.40 41.11 39.63 37.16 36.45 32.44 29.24 32.57 47.19 47.19 46.60 47.96 47.88 49.71 51.45 51.15 49.89 49.32 49.82 49.41 49.56 49.97 50.17 49.81 50.32 50.58 50.45 50.40 50.02 49.90 50.15 50.49 51.20 51.55 53.78 53.04 52.97 52.52
47.03 38.56 35.73 31.21 35.13 39.55 38.36 41.46 40.31 38.12 30.24 33.64 33.85 40.79 43.55 47.18 47.24 47.21 48.57 49.08 50.92 50.37 49.78 48.28 47.46 47.94 48.49 48.99 48.45 48.37 47.85 48.32 48.28 48.32 47.24 46.16 46.11 46.87 47.84 48.50 49.46 50.25 50.88 50.02
45.27 36.95 38.69 40.29 42.12 41.95 42.42 42.13 42.59 37.84 38.15 34.77 38.04 41.17 43.40 46.56 48.45 49.27 50.04 51.08 51.94 49.47 48.74 47.58 46.37 46.86 48.26 48.50 48.11 47.86 47.36 47.71 47.69 47.49 46.57 45.46 45.66 45.98 46.40 46.87 47.16 47.76 47.78 48.14
43.99 38.03 39.31 37.56 40.54 41.61 39.61 42.32 43.46 42.65 41.65 41.83 42.97 41.64 47.12 48.60 49.22 49.15 49.94 50.78 49.52 48.41 48.12 47.48 47.91 47.32 47.67 47.99 48.49 48.92 47.68 47.12 47.42 46.23 45.52 45.99 45.76 45.63 45.08 45.16 45.16 45.35 45.23 45.40
40.62 37.54 37.27 33.70 39.37 39.14 35.27 39.02 42.00 43.31 45.08 43.42 39.36 43.48 46.74 46.02 46.79 48.06 48.84 50.78 48.96 49.13 48.63 48.21 47.87 47.18 46.52 47.06 47.84 47.50 48.21 48.33 47.21 46.21 46.28 45.99 45.54 44.97 44.25 44.59 43.95 43.33 42.66 43.01
40.05 38.97 36.15 34.45 36.12 28.67 38.81 43.94 45.81 44.20 45.17 45.84 45.68 46.35 46.96 46.10 47.04 48.29 50.16 49.55 48.98 48.98 48.65 48.01 45.86 45.81 46.26 47.04 46.65 47.24 48.01 47.26 46.74 45.48 45.64 45.84 45.06 44.08 43.32 42.48 41.57 40.89 40.39 40.58
42.77 39.59 33.55 32.49 31.05 37.07 40.03 42.96 43.59 42.18 39.83 44.43 44.61 43.29 43.93 45.28 45.51 43.10 47.25 48.19 46.53 46.36 46.37 45.45 45.06 44.74 45.09 45.43 45.70 44.89 43.64 44.11 44.50 43.73 43.24 43.84 43.32 41.65 40.44 39.03 38.09 37.77 37.21 37.60
41.97 42.10 35.18 32.31 29.65 28.49 38.75 44.60 47.65 45.16 36.04 45.11 44.56 43.26 44.01 45.26 39.30 40.42 43.74 45.71 45.06 45.53 45.25 44.22 42.59 41.89 40.81 40.68 41.76 41.51 40.63 41.22 41.25 41.02 40.59 40.42 40.54 39.08 37.24 36.21 35.92 35.79 35.09 36.64
34.83 33.87 31.90 31.12 31.56 36.87 44.47 46.40 47.80 34.01 36.98 44.45 45.20 45.17 44.90 43.17 43.58 42.54 43.67 42.72 42.27 42.04 40.53 40.44 40.09 39.28 39.28 39.76 39.57 38.25 38.02 38.06 39.74 40.17 39.41 38.18 36.64 36.11 36.34 34.72 34.11 33.74 33.64 34.03
32.11 29.48 28.60 31.76 29.17 30.79 45.21 44.61 38.01 41.07 42.02 45.11 45.31 45.16 43.70 44.60 42.97 41.61 40.14 38.61 39.27 38.99 39.02 38.68 37.81 37.09 37.72 38.23 37.44 35.68 35.00 36.77 37.25 37.06 36.44 35.35 34.39 35.25 36.52 32.89 32.23 32.23 31.72 32.00
32.14 34.11 32.39 33.39 33.31 42.06 43.63 41.87 42.63 43.31 42.21 44.01 41.20 41.88 41.87 39.32 37.95 38.36 36.83 36.98 37.08 36.86 36.47 36.44 35.41 35.38 35.63 35.97 35.90 34.11 34.07 35.29 35.26 33.56 32.68 32.47 32.99 33.13 33.07 31.05 30.61 30.90 31.49 33.07
38.68 40.84 37.91 38.37 42.18 41.17 40.40 39.84 40.98 41.20 39.79 41.03 40.65 39.04 39.06 36.57 36.52 35.34 35.28 34.92 34.92 35.20 34.87 34.71 33.92 33.98 33.65 34.19 34.74 33.62 34.04 34.20 32.65 30.87 30.35 30.59 29.81 31.49 30.17 31.38 31.62 33.11 34.81 35.83
36.95 39.69 40.04 40.65 42.12 40.50 38.29 37.62 39.11 39.12 39.29 38.12 38.20 38.12 37.50 36.70 35.22 34.62 34.06 33.88 33.52 32.97 33.10 32.95 32.42 32.00 32.62 33.23 32.83 32.64 33.16 32.48 29.41 29.18 29.64 30.56 32.01 32.76 33.55 33.37 35.53 36.19 37.14 37.20
38.48 37.88 36.48 38.07 42.19 39.56 36.85 37.23 40.12 37.89 36.97 36.99 35.82 34.65 35.09 35.52 33.89 33.39 32.06 32.14 31.70 30.98 31.13 30.64 30.37 30.74 31.17 31.11 31.28 31.71 32.15 30.61 28.74 30.42 31.73 33.43 34.33 34.62 35.03 35.04 35.94 38.21 37.85 38.17